Weather History for Kimball, NE

Change the Weather History Date:

Friday, May 10, 2013

  Actual Average (KSNY) Record (KSNY)
Temperature  
Mean Temperature 54 °F 56 °F  
Max Temperature 69 °F 70 °F 88 °F (2012)
Min Temperature 39 °F 42 °F 24 °F (2008)
Degree Days  
Heating Degree Days 11 10  
Month to date heating degree days 109  
Since 1 July heating degree days 6021  
Cooling Degree Days 0 1  
Month to date cooling degree days 1  
Year to date cooling degree days 2  
Growing Degree Days 4 (Base 50)    
Moisture  
Dew Point 38 °F    
Average Humidity 56    
Maximum Humidity 95    
Minimum Humidity 17    
Precipitation  
Precipitation 0.00 in 0.10 in 1.40 in (1971)
Month to date precipitation 1.00  
Year to date precipitation 4.67  
Sea Level Pressure  
Sea Level Pressure 30.19 in    
Wind  
Wind Speed 6 mph (North)    
Max Wind Speed 20 mph    
Max Gust Speed 24 mph    
Visibility 9 miles    
Events Rain    
T = Trace of Precipitation, MM = Missing Value Source: NWS Daily Summary

Daily Weather History Graph

Daily Weather History Graph

Search for Another Location

Airport:

Trip Planner

Search our weather history database for the weather conditions in past years. The results will help you decide how hot, cold, wet, or windy it might be!

Date:

Astronomy

May. 10, 2013 Rise Set
Actual Time 6:41 AM CDT 9:01 PM CDT
Civil Twilight 6:10 AM CDT 9:32 PM CDT
Nautical Twilight 5:32 AM CDT 10:10 PM CDT
Astronomical Twilight 4:49 AM CDT 10:53 PM CDT
Moon 7:07 AM CDT (5/10) 9:53 PM CDT (5/10)
Length of Visible Light 15h 22m
Length of Day
14h 20m
New Moon, 0% of the Moon is Illuminated
May 10
New Moon
May 17
First Quarter
May 24
Full
May 31
Last Quarter
Jun 8
New

Hourly Weather History & Observations

Time (CDT) Temp. Windchill Dew Point Humidity Pressure Visibility Wind Dir Wind Speed Gust Speed Precip Events Conditions
12:15 AM 50.5 °F - 41.9 °F 72% 30.19 in 10.0 mi Calm Calm - N/A   Overcast
12:35 AM 52.0 °F - 41.4 °F 67% 30.20 in 10.0 mi NNW 5.8 mph - N/A   Overcast
1:15 AM 50.0 °F - 42.8 °F 76% 30.19 in 10.0 mi ENE 4.6 mph - N/A   Mostly Cloudy
1:35 AM 46.8 °F - 41.9 °F 83% 30.19 in 10.0 mi NNE 6.9 mph - N/A   Scattered Clouds
1:55 AM 46.0 °F 43.9 °F 41.5 °F 84% 30.19 in 10.0 mi ENE 4.6 mph - N/A   Scattered Clouds
2:15 AM 45.1 °F - 42.3 °F 90% 30.17 in 10.0 mi Calm Calm - N/A   Clear
2:35 AM 43.2 °F 40.5 °F 40.6 °F 91% 30.17 in 10.0 mi NW 4.6 mph - N/A   Clear
2:55 AM 43.2 °F 41.5 °F 40.5 °F 90% 30.17 in 10.0 mi North 3.5 mph - N/A   Clear
3:15 AM 43.2 °F 39.7 °F 41.0 °F 92% 30.17 in 10.0 mi North 5.8 mph - N/A   Clear
3:55 AM 40.8 °F - 39.0 °F 93% 30.16 in 7.0 mi Calm Calm - N/A   Clear
4:15 AM 40.5 °F - 39.0 °F 95% 30.17 in 5.0 mi Calm Calm - N/A   Clear
4:35 AM 41.2 °F - 39.6 °F 94% 30.17 in 7.0 mi Calm Calm - N/A   Clear
4:55 AM 39.9 °F 36.7 °F 38.1 °F 93% 30.17 in 7.0 mi West 4.6 mph - N/A   Mostly Cloudy
5:15 AM 41.9 °F 39.0 °F 40.1 °F 93% 30.17 in 7.0 mi WNW 4.6 mph - N/A   Overcast
5:35 AM 42.6 °F 40.9 °F 41.0 °F 94% 30.17 in 7.0 mi WNW 3.5 mph - N/A   Overcast
5:55 AM 42.6 °F 40.9 °F 40.8 °F 93% 30.17 in 7.0 mi West 3.5 mph - N/A   Mostly Cloudy
6:15 AM 41.0 °F 39.0 °F 39.2 °F 93% 30.17 in 7.0 mi WNW 3.5 mph - N/A   Scattered Clouds
6:35 AM 39.9 °F 35.1 °F 38.3 °F 94% 30.17 in 7.0 mi WNW 6.9 mph - N/A   Clear
7:15 AM 44.2 °F 40.3 °F 43.0 °F 95% 30.18 in 7.0 mi NNW 6.9 mph - N/A   Overcast
7:35 AM 44.1 °F 41.5 °F 42.3 °F 93% 30.19 in 5.0 mi NW 4.6 mph - N/A   Scattered Clouds
8:15 AM 47.5 °F - 44.6 °F 90% 30.19 in 10.0 mi NW 4.6 mph - N/A   Clear
8:35 AM 49.8 °F - 45.0 °F 83% 30.19 in 10.0 mi NNW 5.8 mph - N/A   Clear
8:55 AM 50.9 °F - 45.3 °F 81% 30.19 in 10.0 mi NNW 5.8 mph - N/A   Clear
9:15 AM 52.5 °F - 45.3 °F 76% 30.19 in 10.0 mi NNW 4.6 mph - N/A   Clear
9:35 AM 53.4 °F - 43.5 °F 69% 30.19 in 10.0 mi NNW 3.5 mph - N/A   Clear
9:55 AM 55.4 °F - 43.2 °F 63% 30.19 in 10.0 mi NW 3.5 mph - N/A   Clear
10:15 AM 55.9 °F - 42.6 °F 61% 30.20 in 10.0 mi North 5.8 mph - N/A   Clear
10:35 AM 57.7 °F - 41.9 °F 56% 30.20 in 10.0 mi Calm Calm - N/A   Clear
10:55 AM 59.0 °F - 40.3 °F 50% 30.20 in 10.0 mi West 3.5 mph - N/A   Clear
11:15 AM 59.4 °F - 39.7 °F 48% 30.20 in 10.0 mi North 4.6 mph - N/A   Clear
11:35 AM 61.3 °F - 38.1 °F 42% 30.20 in 10.0 mi NW 6.9 mph - N/A   Clear
12:15 PM 62.4 °F - 37.6 °F 40% 30.20 in 10.0 mi North 10.4 mph - N/A   Scattered Clouds
12:35 PM 63.5 °F - 36.3 °F 36% 30.20 in 10.0 mi NNW 6.9 mph - N/A   Scattered Clouds
12:55 PM 65.8 °F - 34.9 °F 32% 30.19 in 10.0 mi NW 4.6 mph 17.3 mph N/A   Scattered Clouds
1:15 PM 63.9 °F - 35.2 °F 35% 30.19 in 10.0 mi NNW 5.8 mph - N/A   Mostly Cloudy
1:35 PM 64.4 °F - 34.2 °F 32% 30.19 in 10.0 mi NNW 12.7 mph 18.4 mph N/A   Mostly Cloudy
1:55 PM 67.1 °F - 33.8 °F 29% 30.19 in 10.0 mi NW 12.7 mph 18.4 mph N/A   Mostly Cloudy
2:15 PM 66.9 °F - 32.7 °F 28% 30.18 in 10.0 mi NW 11.5 mph 18.4 mph N/A   Scattered Clouds
2:35 PM 68.5 °F - 31.5 °F 25% 30.18 in 10.0 mi NNW 13.8 mph - N/A   Scattered Clouds
2:55 PM 68.9 °F - 30.7 °F 24% 30.18 in 10.0 mi NW 8.1 mph 16.1 mph N/A   Clear
3:15 PM 68.4 °F - 28.0 °F 22% 30.17 in 10.0 mi NNW 16.1 mph 19.6 mph N/A   Clear
3:35 PM 68.7 °F - 30.0 °F 24% 30.17 in 10.0 mi North 11.5 mph - N/A   Scattered Clouds
3:55 PM 67.6 °F - 32.0 °F 27% 30.16 in 10.0 mi NNE 17.3 mph 20.7 mph N/A   Mostly Cloudy
4:15 PM 68.7 °F - 34.0 °F 28% 30.16 in 10.0 mi NNE 12.7 mph 17.3 mph N/A   Mostly Cloudy
4:35 PM 58.3 °F - 44.6 °F 60% 30.17 in 10.0 mi NNE 17.3 mph 20.7 mph N/A Rain Light Rain
4:55 PM 61.7 °F - 39.7 °F 44% 30.17 in 10.0 mi NE 4.6 mph - N/A   Overcast
5:15 PM 64.0 °F - 35.4 °F 35% 30.16 in 10.0 mi ENE 3.5 mph - N/A   Mostly Cloudy
5:35 PM 65.7 °F - 34.9 °F 32% 30.16 in 10.0 mi Calm Calm - N/A   Scattered Clouds
5:55 PM 66.4 °F - 34.2 °F 30% 30.16 in 10.0 mi North 6.9 mph - N/A   Scattered Clouds
6:15 PM 65.8 °F - 34.5 °F 31% 30.16 in 10.0 mi NE 12.7 mph 17.3 mph N/A   Scattered Clouds
6:35 PM 69.1 °F - 34.9 °F 28% 30.16 in 10.0 mi East 11.5 mph - N/A   Mostly Cloudy
6:55 PM 68.4 °F - 32.9 °F 27% 30.16 in 10.0 mi NE 6.9 mph - N/A   Scattered Clouds
7:15 PM 67.5 °F - 31.8 °F 27% 30.16 in 10.0 mi NNE 5.8 mph - N/A   Scattered Clouds
7:35 PM 68.2 °F - 22.1 °F 17% 30.16 in 10.0 mi North 12.7 mph - N/A   Scattered Clouds
7:55 PM 66.2 °F - 33.4 °F 30% 30.17 in 10.0 mi NNE 5.8 mph - N/A   Scattered Clouds
8:15 PM 64.8 °F - 34.3 °F 32% 30.18 in 10.0 mi NE 4.6 mph - N/A   Clear
8:35 PM 61.3 °F - 36.5 °F 40% 30.19 in 10.0 mi NE 6.9 mph - N/A   Clear
8:55 PM 60.8 °F - 34.5 °F 37% 30.20 in 10.0 mi NNE 11.5 mph - N/A   Clear
9:15 PM 58.1 °F - 34.5 °F 41% 30.22 in 10.0 mi NNE 8.1 mph - N/A   Clear
9:35 PM 55.0 °F - 34.2 °F 45% 30.22 in 10.0 mi NNE 6.9 mph - N/A   Clear
9:55 PM 55.4 °F - 33.6 °F 44% 30.23 in 10.0 mi North 9.2 mph - N/A   Clear
10:15 PM 54.7 °F - 34.0 °F 46% 30.24 in 10.0 mi North 9.2 mph - N/A   Clear
10:35 PM 56.1 °F - 32.4 °F 41% 30.27 in 10.0 mi North 19.6 mph 23.0 mph N/A   Clear
10:55 PM 54.5 °F - 36.5 °F 51% 30.28 in 10.0 mi NNE 16.1 mph 24.2 mph N/A   Clear
11:15 PM 53.6 °F - 37.8 °F 55% 30.28 in 10.0 mi NNE 13.8 mph - N/A   Scattered Clouds
11:35 PM 53.6 °F - 38.3 °F 56% 30.28 in 10.0 mi NE 11.5 mph - N/A   Mostly Cloudy
11:55 PM 51.8 °F - 38.3 °F 60% 30.28 in 10.0 mi NE 10.4 mph - N/A   Scattered Clouds